Regional Weather Roundup
Issued by NWS

Home | Current Version | Previous Version | Graphics & Text | Print | Product List | Glossary On
Versions: 1 2 3 4 5 6 7 8 9 10 11 12 13 14 15 16 17 18 19 20 21 22 23 24 25 26 27 28 29 30 31 32 33 34 35 36 37 38 39 40 41 42 43 44 45 46 47 48 49 50
000
ASUS43 KDMX 220307
RWRIA

WEATHER ROUNDUP FOR IOWA
NATIONAL WEATHER SERVICE DES MOINES IA
1000 PM CDT THU MAY 21 2015

NOTE: "FAIR" INDICATES FEW OR NO CLOUDS BELOW 12,000 FEET WITH NO
SIGNIFICANT WEATHER AND/OR OBSTRUCTIONS TO VISIBILITY.

* - THESE STATIONS ARE NOT NWS STATIONS...THUS NOT UNDER NWS
QUALITY CONTROL.  THEY ALSO DO NOT REPORT WEATHER SUCH
AS PRECIPITATION OR FOG.

IAZ001>003-012>014-020>022-031>034-043>046-220400-
   NORTHWEST IOWA

CITY           SKY/WX    TMP DP  RH WIND       PRES   REMARKS
CARROLL *      PTCLDY    59  41  51 W12       30.11S
CHEROKEE *     CLEAR     59  41  51 CALM      30.13R
DENISON *      CLEAR     59  41  51 CALM      30.12R
LE MARS *      PTCLDY    61  41  48 CALM      30.14R
ORANGE CITY *  CLEAR     57  43  58 W5        30.13R
SHELDON *      CLEAR     57  37  47 CALM      30.12R
SIOUX CITY     CLEAR     61  36  39 W6        30.13S
SPENCER        CLEAR     58  33  39 N7        30.12R
STORM LAKE *   PTCLDY    59  41  51 W9        30.14R
$$

IAZ055>058-069>071-079>083-090>094-220400-
   SOUTHWEST IOWA

CITY           SKY/WX    TMP DP  RH WIND       PRES   REMARKS
ATLANTIC *     CLEAR     59  43  55 W8        30.14R
AUDUBON *      CLEAR     57  43  58 W3        30.15R
CLARINDA *     CLEAR     57  46  67 SW5       30.18R
COUNCIL BLFS * CLEAR     61  43  51 SW9       30.16R
CRESTON *      CLEAR     57  46  67 W9        30.15R
HARLAN  *      CLEAR     59  43  55 W12       30.17R
LAMONI         CLEAR     62  44  51 SW10      30.14R
RED OAK *      CLEAR     61  43  51 W8        30.16R
SHENANDOAH *   CLEAR     57  46  67 SW7       30.18R
$$

IAZ047>049-059>061-072>074-084-220400-
   CENTRAL IOWA

CITY           SKY/WX    TMP DP  RH WIND       PRES   REMARKS
AMES           CLEAR     55  42  61 W6        30.09R
ANKENY *       PTCLDY    61  43  51 W7        30.09R
CHARITON *       N/A     59  46  63 SW8       30.11S
DES MOINES     PTCLDY    63  41  44 W5        30.10R
GRINNELL*      CLEAR     61  37  41 W5        30.09R
KNOXVILLE *    CLEAR     61  45  55 SW10      30.08R
MARSHALLTOWN   CLEAR     55  35  47 W6        30.07R
PELLA *        CLEAR     63  48  59 W7        30.10R
PERRY *          N/A     57  43  58 W10       30.11R
$$

IAZ004>006-015-016-023>025-035-036-220400-
   NORTH CENTRAL IOWA

CITY           SKY/WX    TMP DP  RH WIND       PRES   REMARKS
ALGONA *       CLEAR     61  30  31 NW8       30.10R
CLARION *      CLEAR     55  36  47 CALM      30.09R
ESTHERVILLE    CLEAR     55  29  36 NW7       30.10R
FORT DODGE *   CLEAR     52  39  62 CALM      30.11R
MASON CITY     CLEAR     52  37  56 W8        30.09R
FOREST CITY *    N/A     55  34  44 NW6       30.08R
IOWA FALLS *     N/A     52  34  50 W6        30.09R
$$

IAZ007>011-017>019-026>030-037>042-050>054-066-220400-
   NORTHEAST IOWA

CITY           SKY/WX    TMP DP  RH WIND       PRES   REMARKS
CEDAR RAPIDS   CLEAR     57  36  45 NW8       30.05R
CHARLES CITY * CLEAR     61  34  36 NW7       30.07R
CLINTON *      CLEAR     57  43  58 SW12      30.05S
DECORAH *      CLEAR     61  32  33 W5        30.04R
DUBUQUE        CLEAR     56  37  49 NW9       30.04R
MONTICELLO *   CLEAR     57  41  54 CALM      30.04R
OELWEIN *      CLEAR     57  36  44 NW7       30.06R
WATERLOO       CLEAR     54  38  54 W3        30.06R
$$

IAZ064-065-067-068-078-220400-
   EAST CENTRAL IOWA

CITY           SKY/WX    TMP DP  RH WIND       PRES   REMARKS
DAVENPORT      CLEAR     61  42  49 SW10      30.04R
IOWA CITY      CLEAR     55  45  68 W6        30.06R
MT. PLEASANT * PTCLDY    59  46  63 SW9       30.08R
MUSCATINE *    PTCLDY    64  46  52 SW14      30.05R
QUAD CITIES    PTCLDY    63  42  46 SW14      30.03S
$$

IAZ062-063-075>077-085>089-095>099-220400-
   SOUTHEAST IOWA

CITY           SKY/WX    TMP DP  RH WIND       PRES   REMARKS
BURLINGTON     MOCLDY    59  49  69 SW9       30.08R
FAIRFIELD *    MOCLDY    63  46  55 SW8       30.08R
FORT MADISON * CLEAR     61  48  63 SW8       30.10S
KEOKUK *       CLEAR     61  48  63 SW12      30.10R
OSKALOOSA *      N/A     61  43  51 W9        30.09R
CENTERVILLE *  CLEAR     57  57 100 SW9       30.13R
OTTUMWA        MOCLDY    60  46  59 W9        30.08R
WASHINGTON *   MOCLDY    61  45  55 SW6       30.08R
$$

ABBREVIATIONS USED IN REMARKS
   TC - TEMPERATURES IN CELSIUS
  WCI - WIND CHILL INDEX
   HX - HEAT INDEX
  VSB - VISIBILITY
$$



USA.gov is the U.S. government's official web portal to all federal, state and local government web resources and services.